Location: Sigmaringen
(48.0900°N, 9.2120°E)
Time: 19:11:24
(UTC+01:00)

ISS - Pass Details

Date: 09 January 2018
Orbit: 402 x 407 km, 51.6° (Epoch: 17 January)

Event Time Altitude Azimuth Distance (km) Brightness Sun altitude
Exits shadow 07:21:46 11° 290° (WNW) 1,402 -1.8 -8.2°
Maximum altitude 07:24:53 71° 207° (SSW) 434 -3.7 -7.7°
Drops below altitude 10° 07:28:10 10° 123° (ESE) 1,465 0.7 -7.2°
Sets 07:30:14 0° 121° (ESE) 2,323 2.6 -6.9°
